Location: Unspecified
(43.4000°N, 0.0000°E)
Time: 04:43:55
(UTC+00:00)

NOAA 19 - Pass Details

Date: 01 September 2019
Orbit: 840 x 862 km, 99.2° (Epoch: 15 September)

Event Time Altitude Azimuth Distance (km) Brightness Sun altitude
Rises 04:00:35 0° 34° (NE) 3,413 9.5 -15.0°
Reaches altitude 10° 04:04:22 10° 60° (ENE) 2,468 9.1 -14.3°
Maximum altitude 04:06:56 13° 89° (E) 2,226 8.4 -13.9°
Drops below altitude 10° 04:09:31 10° 118° (ESE) 2,456 8.1 -13.5°
Sets 04:13:14 0° 144° (SE) 3,383 8.5 -12.9°
